Theta_e
286 286 285 284 284 283 283 282 282 282 282 282 282 283 283 283 284 283 284 284 284 284 284 283 282 282 281 281 281 281 282 283 282 282 283 283 284 283 283 283 283 283 284 283 283 284 283 283 283 283 283 283 283 283 285 288 291 292 293 294 293 293 293 294 294 296 295 294 296 298 302 308 312 315 318 321 322 323 324 324 324 324 325 325 326
285 284 283 282 282 282 282 281 285 282 282 282 281 282 282 283 283 283 283 283 283 284 283 282 282 281 281 280 280 280 280 280 280 281 282 284 283 282 282 282 282 282 283 283 283 282 282 282 282 282 282 282 283 284 284 287 289 291 293 293 294 292 292 294 294 295 292 292 292 294 297 300 305 313 317 319 321 323 323 324 324 324 324 325 325
284 284 283 282 282 282 281 281 281 280 281 281 281 282 283 283 283 283 283 283 283 284 283 282 282 282 281 280 280 280 281 281 281 282 282 282 281 282 282 282 282 281 282 282 282 282 282 282 282 282 282 283 283 283 284 284 287 289 291 291 291 292 292 294 294 295 292 294 295 294 291 293 300 307 311 316 320 321 323 323 323 323 323 324 325
284 282 281 281 281 281 280 280 280 280 281 281 281 282 283 284 282 282 282 282 282 284 284 282 283 283 282 281 281 280 280 282 281 281 280 280 280 281 281 281 281 281 281 281 282 281 281 281 281 282 282 283 283 282 283 284 285 287 288 290 291 289 291 291 294 295 295 293 288 291 294 296 294 300 307 310 315 319 320 321 322 322 323 324 324
284 282 281 280 280 280 281 281 279 280 280 280 281 281 284 282 282 282 282 282 282 283 281 282 282 280 280 280 280 280 280 279 279 278 279 280 280 279 280 280 280 280 281 281 281 281 281 281 281 282 282 281 282 281 281 283 285 287 288 289 290 290 290 291 292 294 295 296 292 290 288 288 290 300 301 305 309 312 316 319 319 321 322 322 322
284 282 281 281 280 280 280 280 279 279 280 281 281 281 281 282 282 282 282 282 282 282 281 282 280 279 278 277 277 277 276 277 276 276 277 277 277 279 279 280 280 280 280 280 280 281 280 281 281 281 280 280 281 280 281 282 283 285 288 290 291 292 291 291 291 293 294 294 296 295 293 289 291 293 293 291 301 303 308 314 317 319 322 321 321
282 282 281 280 280 280 280 279 280 279 280 281 280 281 281 281 281 281 281 282 282 281 281 282 279 278 278 277 277 276 276 277 277 278 277 278 279 278 278 279 279 279 279 279 279 280 280 280 279 279 279 279 280 280 280 281 282 284 286 289 291 292 292 290 291 292 291 293 295 296 296 296 296 293 289 294 293 301 303 308 313 315 318 320 320
282 281 281 280 280 280 280 280 279 280 281 280 280 281 281 281 281 281 281 282 281 280 280 280 279 278 277 277 278 277 276 276 277 277 278 279 278 277 278 278 278 278 278 278 279 278 279 278 279 279 279 279 280 280 279 280 281 284 286 288 290 291 292 292 292 292 290 290 293 293 294 296 297 297 296 293 292 291 300 304 307 313 314 317 319
281 281 280 280 280 280 280 279 279 279 279 280 280 281 281 280 281 280 280 280 280 279 281 279 280 279 277 277 276 277 277 277 277 278 277 277 276 277 277 277 277 278 278 277 277 277 278 278 278 279 279 278 279 279 279 279 279 280 282 284 286 288 290 292 293 292 291 291 290 291 293 294 295 295 295 295 293 292 294 302 304 304 310 313 316
281 281 281 280 280 280 279 279 279 280 280 281 281 280 280 280 280 281 279 279 280 279 279 278 278 279 277 276 276 276 276 276 276 275 276 276 275 275 276 276 276 276 276 277 277 277 277 277 277 276 276 276 278 277 278 278 278 279 281 283 284 285 288 290 292 293 293 293 292 292 291 292 292 292 292 292 294 295 293 298 305 305 305 309 312
280 280 280 280 280 279 278 279 280 279 279 279 280 280 279 280 279 278 279 279 279 278 278 278 277 277 277 276 276 275 275 275 274 274 275 274 274 274 275 275 275 275 276 276 276 276 276 276 276 275 276 277 278 277 277 276 277 277 278 280 282 284 286 288 291 293 293 293 292 293 292 292 291 289 290 291 292 292 294 299 304 307 308 307 309
280 280 279 279 278 278 278 278 279 279 279 279 279 279 279 279 278 278 278 278 278 278 277 277 277 276 276 276 275 275 275 275 274 273 274 273 274 274 274 274 274 275 275 274 274 275 275 275 275 275 276 276 276 276 276 276 276 277 277 278 281 284 287 288 290 291 293 293 292 293 293 294 294 293 293 293 292 292 293 293 300 306 307 308 309
280 279 280 279 279 279 278 278 278 278 279 278 278 278 278 278 278 277 277 277 277 277 277 276 276 276 276 275 275 276 275 275 274 273 274 273 274 273 273 273 273 273 273 273 273 274 274 274 274 274 274 274 274 275 275 276 276 276 277 279 280 283 287 289 290 291 292 291 291 292 294 294 294 295 295 294 294 294 293 292 294 303 305 304 303
280 280 279 279 279 279 279 279 279 278 278 278 278 279 278 278 277 277 277 277 277 276 276 276 275 276 275 275 275 275 274 274 274 274 274 274 274 273 273 273 273 273 273 273 273 274 274 274 274 273 274 274 275 275 275 275 276 276 277 279 282 285 287 288 289 290 291 292 292 291 291 293 294 295 295 295 294 293 292 292 294 299 304 304 298
280 279 279 279 279 278 278 279 278 278 278 278 277 277 277 276 277 277 276 276 276 276 275 275 275 275 275 275 275 274 274 274 274 275 274 274 274 273 273 273 273 273 273 273 274 273 273 273 273 273 273 273 274 274 275 275 275 277 278 278 279 280 284 286 287 289 291 291 291 291 291 292 294 294 295 294 295 294 294 294 294 293 295 294 301
279 279 279 278 278 278 278 278 278 278 278 277 277 277 277 276 276 276 276 276 275 276 274 274 274 274 274 274 274 274 275 275 274 274 274 274 273 273 273 273 273 273 273 273 273 273 273 272 273 273 273 273 273 274 274 274 274 275 275 276 277 280 282 283 285 288 291 292 291 291 291 292 294 294 295 295 295 295 295 296 296 295 296 295 294
279 279 279 278 277 277 278 278 278 278 277 277 277 276 276 276 276 275 275 275 275 275 274 274 274 273 273 273 273 273 273 272 272 272 273 273 273 273 272 273 273 273 273 273 273 273 273 272 272 272 272 272 272 273 273 273 273 274 274 275 276 280 281 282 284 287 290 292 292 292 292 292 293 294 295 295 295 295 296 296 297 296 296 299 296
279 278 278 278 278 278 278 278 278 278 277 276 276 276 276 276 275 275 275 274 274 274 274 273 273 273 273 273 273 273 272 272 272 272 273 273 272 272 272 272 272 273 273 273 273 272 272 273 272 271 271 272 272 272 272 273 273 273 273 275 277 278 279 281 283 286 288 291 292 292 292 292 293 294 294 295 295 295 295 296 297 298 298 298 302
278 278 278 277 278 278 278 278 277 277 278 276 276 276 275 275 275 275 274 274 274 274 273 273 273 273 273 273 272 272 272 272 272 273 272 272 271 272 272 272 272 272 273 272 272 271 271 271 271 271 271 271 271 271 272 272 272 272 273 275 277 278 279 280 283 285 287 290 291 291 292 292 293 293 294 295 295 295 295 296 297 298 298 299 304
278 278 278 278 278 278 277 277 277 277 276 276 275 275 275 275 274 274 274 273 273 273 273 272 272 272 272 272 272 272 272 272 272 272 271 271 271 271 272 271 272 272 272 272 271 271 271 271 271 270 270 271 271 271 271 271 272 272 274 275 276 278 279 280 282 284 286 289 290 290 291 291 292 293 294 294 295 295 296 296 297 298 298 300 303
278 278 278 278 278 277 276 276 276 275 275 276 275 275 275 274 273 273 273 272 272 272 272 272 272 271 271 270 270 271 271 271 271 271 271 271 271 272 271 272 272 271 271 271 271 271 271 271 270 270 270 270 270 270 271 271 271 272 273 273 275 276 278 279 281 284 286 288 290 290 290 291 292 292 293 294 294 295 296 296 297 298 298 300 303
278 278 278 278 277 277 276 275 275 274 274 274 274 274 274 273 273 273 272 272 271 271 271 271 271 271 270 270 270 270 270 270 270 270 270 270 271 271 271 271 271 271 271 271 271 271 271 270 270 269 270 270 270 270 270 271 270 270 270 272 273 274 276 278 281 282 284 287 290 289 290 291 292 292 292 293 294 294 295 295 297 297 298 300 304
278 278 278 278 277 277 277 276 275 274 274 273 273 273 273 272 272 272 271 271 271 271 271 271 270 270 269 270 269 269 269 269 269 269 270 270 270 270 271 270 270 271 271 271 271 271 270 270 269 269 269 269 270 270 270 270 270 270 270 271 273 274 276 277 278 279 281 285 288 289 289 290 291 291 292 293 294 294 295 295 296 298 299 301 304
278 278 278 277 276 276 276 275 275 274 274 274 273 273 273 272 272 271 271 270 270 270 270 270 269 269 269 269 268 269 269 269 269 269 269 270 270 270 270 270 270 270 270 270 270 270 270 269 269 269 269 269 270 270 271 271 271 271 271 271 273 275 276 277 277 279 280 283 287 288 289 289 290 290 290 291 293 294 294 295 296 297 299 300 303
277 277 277 276 275 275 276 275 275 274 273 273 273 273 272 272 271 271 270 270 270 270 269 269 268 268 268 268 268 268 268 268 268 269 269 269 269 269 270 269 269 269 269 269 269 269 268 268 268 268 268 269 269 270 270 271 272 273 273 273 273 274 275 276 277 278 280 282 285 288 288 289 289 289 289 290 291 292 293 295 295 297 299 301 304
277 277 276 276 276 275 274 274 274 273 273 272 272 272 271 271 270 270 269 269 269 269 269 268 268 267 267 267 267 267 267 268 268 268 268 269 269 269 268 268 268 267 268 268 267 267 268 267 268 268 268 269 269 269 269 270 270 270 271 271 271 272 273 274 276 277 279 281 283 287 288 289 289 288 288 289 290 291 292 294 295 297 299 301 302
277 277 276 276 275 274 274 273 273 273 272 271 271 270 270 270 269 269 269 268 268 268 268 267 266 266 266 266 266 267 267 267 267 268 268 268 268 268 267 267 267 267 266 266 266 266 267 267 267 268 268 268 268 269 269 269 270 270 271 271 271 272 272 273 275 277 279 281 284 286 288 289 289 289 289 290 291 291 292 293 295 297 299 301 300
276 276 275 275 275 274 273 272 272 272 271 271 270 270 269 268 268 268 268 268 268 267 266 266 265 265 265 266 266 267 267 267 267 268 268 267 267 267 266 266 266 266 266 265 265 265 266 266 267 267 268 268 268 268 269 269 270 270 270 270 270 272 273 274 275 277 279 281 284 286 288 289 289 289 288 289 289 290 292 293 295 297 299 301 300
276 276 275 275 274 273 273 272 272 271 270 269 268 268 268 268 268 267 267 267 267 266 265 265 265 265 265 266 266 266 267 267 267 267 266 265 265 265 265 265 265 265 265 265 265 265 265 265 266 267 267 268 268 268 269 269 269 270 270 270 270 271 272 274 275 276 278 280 284 286 288 288 288 288 288 289 289 290 289 289 292 297 298 300 298
276 276 275 275 274 273 272 271 270 270 268 268 268 268 268 267 267 267 266 266 265 264 264 264 264 264 265 265 266 266 266 266 265 264 264 264 264 264 264 264 264 264 264 265 265 265 265 265 265 266 267 268 268 269 271 274 274 272 272 272 272 272 273 273 274 275 277 280 284 286 287 287 287 287 287 288 288 288 288 288 290 292 295 297 297
276 275 275 274 273 272 271 270 269 268 267 267 267 267 266 266 266 266 265 265 264 263 263 263 263 264 265 265 265 265 265 264 264 263 263 262 263 262 262 263 263 263 263 264 264 264 265 265 265 266 267 268 268 269 273 275 276 277 274 273 274 275 275 276 276 276 277 279 281 283 286 287 287 287 287 287 288 288 288 290 291 291 292 296 296
276 275 274 273 272 272 270 269 268 267 266 266 265 265 264 264 265 265 264 264 263 263 262 263 263 264 264 264 264 264 263 262 262 261 261 261 262 261 261 262 262 263 263 264 264 264 265 266 266 267 267 268 268 272 274 275 276 277 277 274 273 273 273 273 275 276 277 278 280 283 286 287 287 287 287 287 287 288 288 289 291 292 293 294 298
276 275 274 273 273 272 270 268 267 266 266 265 265 264 264 264 263 264 263 262 262 262 262 262 262 263 263 263 262 262 261 261 261 261 261 261 261 261 261 262 262 263 264 264 264 264 265 266 266 267 267 268 268 272 274 276 276 277 277 276 273 273 273 273 274 275 278 279 280 282 284 286 287 287 286 286 286 286 287 289 291 292 293 294 297
275 275 274 273 272 271 269 268 267 266 266 265 265 264 263 263 263 262 262 262 261 261 261 261 262 262 262 262 261 260 260 260 260 260 260 260 261 261 262 263 263 264 264 264 264 264 265 266 267 267 267 268 269 272 275 276 276 277 277 277 274 273 274 274 274 276 278 279 280 280 282 284 286 286 286 286 286 286 287 288 291 294 295 295 295
275 274 273 273 271 270 268 267 266 265 265 264 263 263 262 262 262 261 261 261 260 260 260 261 261 261 261 260 260 259 259 259 259 260 260 260 261 261 262 263 264 264 264 264 264 265 266 266 267 268 268 268 269 274 276 276 277 277 277 277 274 274 274 274 275 276 278 279 280 281 281 282 284 285 286 286 286 286 286 286 287 290 294 297 297
276 274 273 271 270 269 267 266 266 264 264 263 262 262 261 260 261 260 260 260 260 259 259 260 259 259 259 259 259 258 258 258 259 259 259 260 261 262 262 263 263 264 264 264 264 265 265 266 267 268 268 268 269 275 276 277 277 277 278 275 274 274 274 274 276 277 278 279 279 280 280 281 282 284 286 288 287 286 286 285 285 288 293 297 298
275 274 272 270 269 267 266 265 264 263 262 262 261 260 260 259 259 259 259 259 259 258 259 259 258 258 258 258 258 258 257 258 258 258 259 260 261 262 262 263 263 263 263 263 263 264 265 266 266 267 268 269 269 273 276 276 277 277 277 274 274 273 274 274 275 277 279 280 281 281 281 281 282 283 286 288 288 288 285 285 285 287 292 295 296
271 270 269 267 266 265 265 264 263 262 261 261 260 259 259 258 258 258 257 258 257 258 258 258 257 257 257 257 257 257 257 257 258 258 259 261 262 262 262 263 262 261 261 262 263 263 265 266 266 267 268 268 270 273 276 277 277 278 277 274 273 273 273 274 276 278 279 279 279 281 281 281 282 284 286 288 289 287 285 285 285 286 290 293 295
270 268 266 265 264 264 264 263 262 260 260 260 259 258 257 257 257 257 257 257 257 257 257 257 257 257 257 257 257 257 257 257 258 259 260 260 261 261 262 262 262 261 261 262 263 263 264 265 266 268 271 271 271 273 276 277 278 278 277 275 274 273 272 273 275 276 278 279 280 281 282 283 283 285 287 288 288 287 285 285 285 286 289 292 295
268 267 266 265 264 263 262 261 260 260 259 259 258 257 256 257 256 256 256 256 256 257 257 257 257 256 256 256 256 256 257 257 258 259 260 261 261 261 261 261 261 261 261 262 263 263 263 265 266 268 269 270 271 272 274 277 277 278 279 276 275 273 272 273 274 276 277 278 279 280 282 284 286 286 287 288 288 289 286 285 286 286 289 292 297
266 265 266 264 263 262 261 261 260 259 259 258 257 256 256 256 256 256 255 256 256 257 256 256 256 255 255 255 256 257 257 258 259 259 260 260 261 261 261 260 260 260 261 261 262 263 264 265 266 267 269 270 271 272 274 277 278 279 279 279 276 275 274 274 275 276 277 278 279 281 282 285 286 287 288 288 289 289 288 286 286 286 289 294 295
267 266 264 262 262 261 260 260 259 259 258 257 256 255 255 255 255 255 255 256 256 256 255 255 254 254 254 255 255 256 258 258 259 259 259 259 260 260 260 260 260 260 260 261 262 263 263 264 266 268 269 270 272 274 272 275 277 279 281 281 277 276 277 276 276 277 277 278 280 281 282 284 285 286 287 288 289 289 289 286 286 289 291 295 294
265 264 263 262 260 260 259 259 258 258 258 258 255 255 254 254 254 255 256 256 255 255 254 254 253 253 254 254 255 256 257 258 259 259 258 258 259 259 259 259 260 260 261 261 262 262 263 264 266 267 269 270 271 271 274 273 276 278 280 280 281 280 281 279 277 277 278 279 281 282 283 284 285 286 287 288 289 289 289 287 289 290 292 294 294
264 264 263 261 260 259 258 258 258 257 257 257 255 254 254 253 254 255 256 255 254 254 253 252 252 253 253 254 255 256 257 258 258 258 258 258 258 258 259 259 260 261 261 261 261 262 264 264 265 266 268 269 269 270 272 274 274 277 279 280 281 282 283 280 279 279 280 281 282 283 285 286 286 287 288 288 289 289 287 288 289 291 293 293 294
263 262 262 261 259 258 257 257 257 256 256 255 255 253 253 253 255 255 254 254 253 252 251 251 251 252 253 254 255 256 257 257 258 258 257 257 257 258 258 259 260 261 261 261 261 263 264 264 265 266 267 267 268 269 270 272 275 276 278 279 280 281 282 284 282 281 281 282 283 284 285 285 286 287 288 288 288 288 289 288 288 290 292 293 293
262 261 260 259 258 256 256 255 256 256 256 255 254 254 251 253 254 254 254 253 251 250 250 250 251 252 252 254 255 256 257 257 257 257 257 257 257 257 258 259 260 261 261 261 262 264 264 264 265 266 266 266 267 268 269 270 272 274 276 277 279 280 281 282 283 283 284 284 284 285 285 285 286 287 287 286 286 286 287 287 288 290 292 293 293
260 261 258 257 256 255 255 255 254 255 255 255 253 254 254 254 253 254 253 251 249 249 250 250 250 251 252 254 255 256 256 256 256 257 257 257 257 257 258 259 260 261 261 262 264 263 263 264 265 265 265 266 266 267 268 270 271 273 274 275 276 277 280 281 282 284 284 284 285 285 284 285 286 287 287 287 287 286 286 286 287 290 292 293 293
261 260 258 257 256 256 255 255 255 255 255 254 253 253 252 252 252 252 250 248 248 249 249 249 250 251 253 254 255 257 256 255 256 256 256 256 257 257 258 259 260 261 262 263 264 264 263 264 265 265 264 265 265 267 268 270 271 272 273 274 275 276 277 279 281 284 285 285 285 286 286 286 286 286 286 286 285 285 286 286 288 291 292 292 292
260 258 257 257 256 255 255 255 255 255 254 253 252 252 251 252 253 250 249 247 249 249 249 249 251 252 252 255 255 255 255 255 255 255 256 257 256 258 259 260 262 264 265 265 264 264 265 265 266 265 264 264 265 266 268 274 273 275 274 274 274 275 277 279 281 284 285 285 285 285 285 285 285 285 285 285 285 285 286 287 288 291 292 292 292
259 258 257 256 256 255 255 254 255 254 253 252 251 251 251 253 251 250 248 247 248 248 248 249 251 251 252 254 254 254 254 255 254 255 255 256 260 264 263 261 262 267 270 271 270 265 266 267 266 266 266 265 265 267 274 275 275 275 276 277 278 280 282 281 282 284 285 285 284 284 284 284 284 284 284 284 285 285 286 287 289 290 292 292 292
258 256 256 255 255 255 254 254 254 253 252 251 251 251 250 251 252 251 250 247 247 247 248 249 250 250 253 254 254 254 254 254 254 255 255 255 255 257 262 265 267 267 268 270 270 270 271 271 268 266 267 271 271 273 274 274 274 275 275 276 277 278 281 284 285 284 284 284 284 284 284 284 285 285 285 285 285 286 286 288 290 291 292 291 291
Wind_Speed
7 9 8 7 7 5 4 4 3 1 1 0 1 1 2 1 0 3 3 3 3 4 5 6 7 6 5 5 7 8 9 8 8 8 7 7 8 8 9 9 10 10 10 11 11 11 10 10 11 9 9 11 12 14 16 16 13 12 12 11 13 13 11 8 8 7 11 13 11 13 14 13 14 16 18 17 16 14 13 14 14 14 14 15 15
6 7 7 5 4 4 3 4 2 4 1 1 1 2 2 0 1 2 2 3 3 4 4 4 3 3 3 4 5 5 6 6 6 6 7 6 7 9 8 8 9 10 11 11 11 11 12 11 10 10 10 11 12 13 15 16 16 13 11 11 9 11 12 9 8 6 9 9 12 13 14 12 13 14 16 18 18 17 15 15 15 15 16 15 14
9 10 8 7 6 5 4 4 3 3 3 3 2 2 0 1 1 1 2 3 3 3 4 4 2 2 3 4 6 7 3 4 5 6 5 6 6 7 7 7 8 9 10 12 11 11 12 12 11 11 11 10 12 13 13 15 14 14 13 12 12 10 12 10 8 6 10 8 8 11 12 13 11 7 9 15 18 17 16 16 17 17 18 16 13
15 13 11 8 7 6 4 4 5 4 3 1 1 1 1 1 1 2 3 2 2 2 3 2 2 3 3 3 5 4 6 7 5 6 5 6 7 6 7 8 10 10 11 11 11 12 13 14 13 12 10 8 10 13 14 14 14 13 13 13 12 14 11 11 8 7 7 5 7 4 8 8 12 10 11 12 14 18 18 18 16 16 17 15 13
14 12 9 8 7 6 7 5 3 4 3 3 2 2 1 1 1 1 2 2 2 3 3 3 3 4 4 4 3 5 4 5 6 5 4 7 10 9 9 8 9 10 11 11 10 12 13 13 13 11 9 10 10 12 12 13 14 14 15 14 14 13 14 12 10 7 8 7 7 7 7 7 10 10 11 11 7 12 16 17 17 17 16 16 14
15 15 12 10 9 6 5 3 5 4 4 4 3 3 2 1 1 1 2 2 3 3 3 3 4 5 7 8 10 9 9 8 10 12 13 10 9 8 9 10 11 10 10 11 11 11 11 10 9 12 14 12 10 9 11 13 13 15 15 13 14 13 14 14 15 7 8 8 10 11 10 10 9 9 10 10 5 6 8 13 14 17 17 16 15
7 9 9 9 7 7 5 5 6 6 4 4 3 3 2 2 2 1 2 2 3 3 3 3 4 3 4 5 5 7 9 8 5 7 9 10 8 9 8 7 10 10 11 10 11 11 11 12 12 14 13 12 11 9 11 11 12 15 14 14 14 13 13 15 16 12 6 7 7 10 12 11 11 9 11 8 13 6 7 10 13 14 14 16 18
12 11 11 9 9 9 8 7 7 7 5 3 3 2 2 2 2 3 2 3 3 3 3 2 3 4 4 5 6 7 8 11 10 9 9 9 10 12 10 9 7 8 10 11 10 13 13 12 13 14 13 11 9 9 10 10 12 10 14 14 15 14 15 16 15 12 10 9 7 8 9 10 11 12 12 11 11 16 14 8 8 14 15 15 16
12 11 12 10 10 9 6 7 6 5 4 3 3 2 2 2 3 3 3 3 4 3 2 3 3 3 4 5 7 6 7 9 9 9 9 9 10 10 11 11 11 9 9 10 12 12 12 13 12 10 10 11 8 12 10 12 14 14 15 15 14 15 15 16 15 14 10 11 6 7 8 9 9 10 9 8 10 11 16 15 13 4 9 11 13
9 11 12 10 9 8 7 5 5 6 4 3 2 1 1 1 3 4 4 3 5 4 3 4 4 3 5 5 7 9 8 9 8 10 10 10 10 11 9 9 9 10 9 8 10 11 12 11 13 14 14 13 15 14 13 12 11 14 15 14 15 17 16 15 16 14 11 11 8 8 7 8 9 8 9 9 11 12 14 16 13 13 14 13 12
10 10 10 9 8 6 5 7 7 4 3 1 1 1 1 1 3 4 4 4 4 4 3 4 4 3 5 5 7 9 10 9 11 11 10 11 11 12 11 11 10 11 8 9 9 9 11 12 11 14 12 14 12 9 9 11 13 14 15 17 17 18 15 16 17 17 13 11 9 8 9 10 10 11 10 8 8 9 10 16 14 14 18 14 12
10 10 10 9 5 4 3 5 5 5 1 1 2 2 2 3 3 4 5 5 4 3 4 4 4 4 4 4 7 8 9 9 10 13 11 12 10 12 11 11 12 10 10 9 9 8 9 10 12 12 12 11 11 11 11 14 12 15 14 12 12 15 15 15 15 17 16 11 10 9 10 9 9 10 9 8 9 11 9 14 15 11 11 10 9
11 11 10 8 9 7 6 6 5 4 4 4 3 3 3 3 4 4 6 4 4 4 4 4 4 4 5 6 7 7 8 9 10 11 11 10 10 13 12 12 12 11 12 10 10 11 9 13 11 11 11 11 14 12 14 14 11 13 13 13 17 17 15 14 14 15 15 13 10 9 9 8 9 8 9 10 10 10 10 11 15 16 12 9 4
12 11 10 9 9 8 7 7 6 5 4 4 4 4 4 3 3 4 7 4 4 4 4 4 4 5 4 6 7 7 8 8 9 10 11 9 10 11 12 11 12 14 12 13 12 11 12 12 12 13 12 13 13 13 13 13 14 12 14 15 15 12 13 15 16 17 15 15 11 9 9 9 9 8 9 9 11 10 10 12 13 14 13 7 4
11 11 11 10 9 8 8 7 6 5 5 5 4 4 3 3 3 5 6 5 4 4 4 4 5 5 5 6 7 6 8 8 9 9 10 11 10 11 12 10 13 13 12 14 13 13 14 12 13 13 13 13 12 15 12 12 13 13 12 11 12 13 15 13 14 16 16 15 12 10 10 9 9 8 9 10 11 11 11 11 8 13 10 3 7
11 11 10 9 8 7 6 6 6 6 5 4 4 3 3 3 4 5 5 6 5 4 4 4 5 5 6 7 8 8 8 8 9 8 9 9 12 13 12 13 11 12 13 12 13 12 12 14 13 13 13 14 12 13 12 12 13 13 13 12 16 11 14 14 14 16 16 16 14 12 10 10 9 9 9 10 11 11 11 10 8 12 14 8 3
11 12 10 9 6 6 7 7 6 5 4 5 5 3 3 4 4 5 6 5 4 4 4 4 5 6 7 7 7 8 9 9 10 12 11 10 10 11 11 15 13 13 13 11 16 13 14 13 13 14 12 14 14 13 14 14 13 15 12 16 15 12 12 13 14 14 15 13 12 13 12 11 9 8 9 10 10 10 11 10 10 12 13 12 9
10 8 8 9 9 9 8 6 6 6 6 4 4 3 3 3 3 5 6 5 5 4 5 5 6 7 7 7 7 8 9 10 10 11 10 12 11 11 12 11 13 13 11 14 12 16 14 16 13 13 14 14 14 12 13 13 15 12 14 15 13 12 11 13 13 14 15 13 13 12 11 11 9 9 9 10 10 11 11 11 11 12 11 15 12
11 12 10 8 8 8 8 8 6 5 4 4 3 3 3 3 4 5 5 4 4 4 4 5 5 6 6 7 8 9 9 10 10 10 11 11 14 14 11 13 13 12 14 12 14 14 15 13 12 12 14 13 13 14 12 14 13 15 16 13 12 10 11 12 12 13 14 13 13 13 12 11 10 10 10 9 10 10 11 11 11 12 12 15 17
12 10 9 9 9 8 8 7 6 6 4 3 3 2 3 4 4 3 3 3 5 6 5 6 6 6 8 8 9 8 9 9 10 10 11 11 13 14 15 15 13 14 11 16 14 14 13 12 12 12 14 12 13 12 13 14 12 14 13 12 11 12 13 11 13 12 12 13 14 14 12 11 10 9 10 9 10 11 12 11 11 11 12 15 17
12 11 10 9 8 7 6 5 5 3 2 1 2 3 4 4 3 3 5 7 6 6 6 6 7 8 9 10 10 10 11 10 11 11 11 13 12 14 13 12 14 12 14 16 15 14 15 17 15 16 14 16 15 14 12 12 14 13 12 14 13 14 14 14 13 14 14 15 15 13 12 12 10 11 9 9 10 11 11 12 11 11 13 14 17
10 10 9 9 7 6 5 3 3 2 2 2 3 3 4 2 3 4 4 4 6 7 6 8 7 8 10 10 10 9 10 10 12 11 13 12 12 12 11 14 13 15 14 18 21 16 13 16 15 15 15 15 13 15 13 11 13 13 18 15 15 16 14 16 11 13 14 14 13 13 12 11 10 11 10 11 11 11 11 12 12 12 13 14 17
12 10 9 8 7 7 7 7 6 4 3 3 4 3 2 3 3 3 4 6 5 7 6 7 8 9 10 10 10 10 10 11 12 11 12 12 13 12 12 13 14 15 18 14 16 20 21 17 17 18 18 17 17 16 12 13 12 15 15 16 14 13 15 15 16 14 14 15 14 12 12 10 9 10 10 10 11 12 11 13 13 12 13 15 17
9 9 8 8 6 5 5 4 4 3 3 4 3 1 2 2 3 3 5 6 6 6 7 8 9 10 10 11 10 10 12 11 12 12 14 13 12 12 12 13 17 16 15 19 18 16 19 19 20 18 18 18 18 16 17 16 15 14 14 16 15 14 12 15 16 15 15 14 14 12 10 10 9 10 10 10 10 11 12 12 13 12 12 15 16
9 10 9 7 5 6 7 5 5 4 3 2 1 1 2 3 2 4 4 4 6 7 7 8 8 11 11 11 12 12 12 12 12 11 13 12 12 12 13 17 15 16 19 16 17 18 18 17 19 19 18 18 17 18 18 18 16 14 13 13 14 13 12 14 15 16 15 15 14 13 10 9 9 10 10 10 9 12 11 12 12 11 11 13 15
13 10 9 10 8 7 5 5 4 4 3 1 1 1 3 3 3 3 4 5 7 6 7 8 9 11 12 13 12 12 12 13 14 14 15 16 14 15 17 13 16 18 17 18 17 15 17 19 19 19 19 18 18 18 18 18 18 17 16 16 16 16 15 16 16 16 16 14 14 13 11 10 10 11 10 10 10 12 12 13 13 12 11 13 14
15 13 8 6 6 7 7 5 4 3 2 1 1 2 3 3 3 3 4 5 6 6 8 9 10 10 11 11 11 11 12 13 13 14 14 14 17 16 14 19 14 18 18 18 19 19 17 19 20 19 19 19 18 18 18 18 18 17 17 17 16 15 16 15 16 16 15 13 13 14 13 12 12 11 10 8 8 10 11 13 12 12 12 14 13
8 8 10 11 9 7 5 5 4 3 2 1 1 2 2 2 4 4 5 5 6 7 8 8 9 10 10 11 11 12 13 13 13 13 17 17 14 17 19 17 18 17 18 20 19 20 19 17 19 19 18 18 18 18 18 18 17 17 16 17 17 17 16 15 14 14 14 15 14 14 14 13 11 9 9 10 10 10 10 12 12 11 12 15 13
12 11 10 10 9 7 6 5 4 2 2 2 2 2 2 2 3 4 4 6 6 7 9 8 9 9 10 11 12 12 12 13 13 17 17 16 19 17 17 17 16 17 17 18 19 19 20 21 20 20 19 18 17 16 14 14 15 17 16 16 17 17 17 16 14 15 15 16 15 13 13 12 11 12 14 13 13 12 11 12 11 10 12 14 13
15 12 11 9 8 7 6 5 3 3 2 2 2 2 2 4 5 4 5 4 6 7 8 9 9 10 10 11 12 12 12 13 15 16 16 19 16 17 17 17 18 18 18 17 18 20 21 20 20 19 18 16 15 14 18 26 24 17 15 15 14 16 16 15 15 16 15 15 15 12 13 15 15 15 15 17 19 19 19 17 14 12 12 12 14
12 10 10 9 7 6 5 5 4 3 3 2 1 1 3 4 4 4 5 5 6 7 7 8 9 10 11 12 12 12 13 15 14 14 14 15 16 15 15 16 16 15 16 17 17 20 23 20 19 18 18 16 15 14 26 26 26 29 21 17 16 14 13 14 15 15 14 14 14 14 11 12 14 14 14 18 18 19 20 23 23 22 20 15 13
14 12 10 9 8 7 6 5 4 3 3 2 1 2 2 2 4 4 5 6 6 7 8 8 10 11 11 11 12 13 13 14 14 14 14 15 15 16 16 16 15 15 16 14 19 21 18 19 16 17 17 16 16 21 27 27 27 28 26 19 16 15 14 15 16 16 14 13 13 12 11 10 11 11 10 10 13 16 18 22 23 21 22 25 22
14 13 12 10 9 8 7 5 4 4 4 2 1 1 2 3 4 5 6 6 7 7 8 9 9 10 11 11 12 13 14 13 14 14 14 15 15 16 17 17 17 15 15 19 18 20 18 17 17 17 17 16 16 23 27 27 26 27 27 24 16 16 16 16 17 17 15 12 11 12 11 11 10 15 12 9 8 10 14 19 21 21 22 23 26
11 11 11 9 7 7 6 6 5 4 3 2 1 1 1 2 4 4 5 6 6 7 8 9 10 10 11 12 12 13 13 14 14 14 15 15 15 17 17 16 17 18 17 16 17 17 18 17 15 16 16 16 17 22 27 28 27 27 27 24 17 17 16 17 18 17 15 14 13 12 12 11 10 10 9 9 9 9 9 11 13 12 12 18 25
14 11 9 10 10 8 8 7 5 5 3 3 1 0 2 2 4 4 4 6 6 7 8 8 10 11 11 11 12 13 13 14 15 15 15 16 16 16 18 15 15 17 17 18 17 18 17 18 17 15 14 16 15 26 28 28 27 27 26 24 17 15 15 16 17 18 17 13 11 11 12 12 11 10 9 10 9 9 8 9 12 13 13 14 15
14 14 11 12 11 10 9 7 5 4 3 2 1 2 2 3 3 4 4 5 5 6 8 9 10 11 11 12 13 14 14 14 15 16 16 15 16 16 17 18 17 16 16 16 17 16 17 19 19 19 17 15 17 28 28 28 27 26 26 17 16 15 15 16 17 17 17 14 12 12 11 12 13 12 14 18 15 9 8 10 12 14 12 13 14
10 11 12 10 9 9 7 7 6 5 4 2 1 2 2 2 3 3 4 4 5 6 7 9 10 11 12 12 12 13 15 15 15 17 17 17 17 18 18 15 17 17 17 18 17 17 16 18 19 19 18 17 17 24 29 29 27 25 21 12 14 12 13 15 16 16 14 13 11 11 11 11 13 14 16 19 17 14 9 10 10 12 12 12 13
14 12 11 10 9 8 7 7 7 6 4 2 1 3 3 3 3 4 4 5 5 6 8 9 10 10 12 11 12 12 14 15 15 16 18 16 15 15 15 15 16 18 18 17 17 17 17 16 19 20 18 17 16 22 31 29 27 25 19 13 13 10 12 14 14 15 13 12 14 22 19 15 15 14 16 19 19 13 10 10 9 11 12 13 14
11 13 12 10 8 8 8 7 7 5 3 3 3 3 3 3 3 5 4 4 5 7 9 10 10 11 11 11 12 12 13 14 16 15 16 17 17 16 15 14 14 15 16 15 16 16 17 17 16 17 25 22 17 21 29 29 28 25 18 12 12 11 12 13 13 13 13 13 12 15 22 21 17 16 22 20 20 15 10 10 9 11 12 15 15
11 10 8 10 10 10 8 7 6 5 4 4 3 2 2 2 2 3 3 5 6 8 8 9 11 11 11 11 11 13 13 13 15 16 15 14 14 15 15 15 14 13 14 14 15 15 18 17 17 18 16 16 17 16 19 28 25 24 23 13 9 12 11 13 13 12 11 10 11 12 15 22 26 26 24 22 20 20 12 9 8 10 12 16 14
12 11 11 8 8 7 7 7 5 5 3 3 3 3 3 2 2 3 4 6 7 7 8 9 10 10 11 12 11 11 14 14 13 13 14 14 13 14 15 15 15 13 14 15 17 16 17 17 16 16 15 16 14 16 18 29 29 26 25 21 10 13 13 12 11 13 11 11 10 10 10 15 22 23 23 22 21 20 17 11 10 11 13 12 14
9 12 10 8 8 8 8 7 5 5 4 3 3 3 3 2 3 4 4 6 6 7 8 9 10 10 11 11 12 12 11 11 12 13 14 14 13 12 12 14 12 13 15 17 17 16 17 17 14 14 15 15 14 20 18 26 29 28 25 24 15 12 15 11 14 11 12 12 12 10 8 12 19 21 20 20 21 20 21 12 12 16 20 19 15
12 9 8 10 9 8 7 7 5 3 4 3 3 4 3 2 3 4 5 6 6 7 8 9 9 10 10 11 12 13 13 11 12 13 14 15 14 13 14 13 13 14 15 17 19 18 17 14 14 14 12 13 15 15 22 21 27 28 29 29 21 21 23 17 13 13 13 12 10 10 11 17 20 21 20 20 19 19 18 12 15 19 22 18 18
6 8 11 8 8 7 8 7 5 4 3 3 4 4 3 3 3 4 5 5 5 6 8 8 8 8 10 10 11 12 11 11 12 13 12 13 14 14 13 12 13 13 13 14 14 13 12 14 16 15 13 13 14 14 18 24 23 28 29 29 27 20 25 16 14 13 11 10 9 10 9 14 18 20 20 19 17 17 12 13 16 21 21 18 14
12 10 8 6 9 10 8 7 6 4 3 3 3 5 3 3 3 3 4 5 7 7 8 8 9 8 9 9 10 11 11 11 11 12 13 13 14 13 13 13 13 13 13 12 14 11 12 15 15 15 16 16 15 15 14 19 28 29 28 27 26 26 22 21 18 13 13 11 13 19 20 21 20 20 20 18 16 17 20 17 20 24 19 11 12
8 8 7 7 8 8 9 8 5 4 3 3 3 4 5 2 2 2 3 4 5 7 7 8 8 8 9 9 10 10 11 11 11 10 11 11 12 13 12 13 12 13 14 13 11 12 15 15 14 15 16 17 17 14 15 16 19 21 22 26 28 26 23 23 21 17 19 22 23 23 24 23 20 17 12 9 7 7 9 14 19 22 11 11 12
11 10 10 9 9 9 8 7 6 3 3 2 3 3 3 1 2 3 3 3 4 5 6 7 8 9 8 8 9 9 11 11 11 9 8 11 11 11 12 12 13 12 11 10 11 15 14 15 14 16 16 17 15 15 15 14 10 12 13 15 16 16 20 19 14 10 17 16 18 18 13 15 14 16 15 13 10 8 8 9 10 10 11 13 13
8 9 8 8 8 10 9 7 6 4 3 2 2 3 2 1 1 2 3 4 4 4 6 7 9 7 7 8 8 11 11 10 11 12 11 10 11 11 12 12 12 12 10 11 9 11 13 14 13 15 15 15 14 14 14 14 15 15 14 14 14 14 13 10 11 8 7 10 11 13 17 13 12 11 10 7 7 6 7 8 9 10 12 12 16
12 8 9 10 10 10 8 8 6 4 3 2 2 2 2 2 2 2 3 4 5 5 5 5 6 6 7 7 7 8 8 9 10 10 10 9 10 12 12 13 13 11 13 14 13 13 11 13 12 15 16 15 14 15 15 25 22 25 21 18 15 13 12 12 12 15 8 8 9 9 8 9 9 9 8 8 7 6 7 8 10 11 11 12 12
6 7 8 9 7 10 9 8 5 4 3 3 2 2 1 1 1 2 2 3 4 5 5 6 5 6 6 7 7 8 8 8 8 9 11 12 13 17 14 12 12 22 28 28 26 17 18 15 14 12 14 17 18 18 32 34 32 30 29 27 24 25 24 19 18 21 12 7 7 8 8 9 8 8 8 8 7 7 7 8 9 12 11 12 12
11 13 11 9 8 8 8 7 6 4 3 3 2 1 1 1 1 2 2 3 3 4 4 4 6 5 7 7 7 7 8 8 8 9 9 10 13 13 15 20 22 24 25 27 29 30 31 31 21 16 18 28 30 33 34 34 33 32 31 30 28 28 30 14 22 11 11 8 6 7 7 7 8 8 8 8 7 7 8 8 9 10 11 13 14
Wind_Direction
195 187 186 193 203 207 168 144 121 120 200 255 244 255 226 221 330 350 310 304 328 351 10 15 9 1 359 350 338 337 337 341 338 337 333 328 327 328 326 325 322 322 320 316 309 304 298 298 298 299 303 304 302 299 298 294 290 286 283 276 278 281 279 271 270 281 292 293 286 280 284 277 267 259 252 242 234 229 222 219 218 219 218 219 218
182 188 201 209 224 224 173 142 126 124 222 242 219 231 227 237 55 317 302 320 346 20 19 20 27 6 331 311 320 320 326 327 325 320 315 318 324 322 319 317 320 320 315 310 304 302 303 302 299 301 308 300 295 294 293 290 289 285 282 278 264 272 277 272 274 291 282 285 308 311 298 285 270 265 251 238 234 229 223 217 216 216 216 217 218
185 190 191 202 213 210 175 163 169 180 204 220 228 239 254 345 323 319 321 347 356 5 25 8 359 346 342 314 329 318 276 266 287 291 293 305 310 306 305 305 311 312 312 312 310 309 308 307 303 303 299 297 297 297 295 291 289 287 282 278 282 269 269 268 266 234 272 279 284 295 289 303 301 265 254 246 231 225 220 218 215 214 216 214 214
187 187 191 201 200 197 181 170 179 196 219 224 240 241 249 309 314 338 335 332 331 358 9 352 335 327 312 303 302 281 296 299 279 272 274 293 303 307 306 316 319 316 316 313 309 307 306 302 299 296 294 297 306 305 302 294 287 282 280 275 272 276 270 270 244 237 228 269 291 242 305 316 298 279 257 241 229 225 217 219 214 215 214 214 211
184 183 190 194 200 199 183 170 171 188 197 211 221 224 212 269 284 327 320 313 329 352 349 335 341 341 331 315 289 296 285 292 302 292 296 315 317 322 322 319 311 309 306 302 301 300 299 294 293 294 301 306 304 301 301 301 301 291 282 275 268 267 271 271 262 231 232 205 234 288 289 259 247 281 349 289 229 231 224 218 214 213 214 210 211
185 183 185 188 187 187 186 168 195 195 206 220 209 216 211 273 292 315 295 317 353 340 334 359 2 352 343 343 341 338 327 336 335 328 325 325 318 305 305 311 309 303 303 306 303 299 294 296 303 307 304 300 295 290 292 294 293 298 297 287 274 264 267 271 272 238 224 219 218 230 236 265 296 311 319 294 326 276 261 227 217 214 212 211 210
195 184 181 177 192 172 191 192 193 185 213 216 224 222 230 249 274 286 308 332 334 317 332 4 356 345 337 324 311 310 311 302 299 302 305 307 308 304 299 296 302 303 305 307 306 305 306 305 301 297 293 291 287 285 287 290 293 293 296 291 286 278 267 265 263 262 240 229 218 231 239 243 249 261 269 291 296 282 244 228 223 219 217 213 210
184 184 181 182 180 177 186 195 184 193 195 197 230 237 213 259 284 311 338 333 314 301 332 360 334 326 323 315 307 307 308 304 313 310 304 302 304 304 305 300 289 292 300 305 306 306 303 299 295 288 284 281 283 286 291 293 293 291 291 293 295 289 272 263 262 255 242 248 198 225 234 242 243 247 249 263 270 283 289 284 266 219 210 217 214
179 176 182 182 182 189 187 184 202 196 203 204 216 225 224 254 300 329 334 324 297 294 316 324 318 308 302 303 307 298 298 302 307 305 303 303 297 300 302 302 301 298 295 300 302 300 300 297 297 296 298 302 298 292 286 285 288 291 291 290 292 293 290 275 260 253 238 248 220 239 235 243 245 241 249 240 253 272 275 262 235 236 221 218 216
187 178 178 183 184 189 198 180 172 195 204 201 226 236 261 301 316 314 314 301 283 292 313 309 302 301 302 302 303 306 308 304 305 304 305 307 299 297 294 294 298 301 301 293 295 299 299 302 300 296 293 290 287 277 276 281 287 288 285 285 286 287 286 285 271 259 247 244 223 234 246 254 254 254 237 235 243 233 259 272 241 198 200 212 208
186 183 181 183 187 179 164 173 185 205 230 227 263 250 262 276 278 294 280 285 278 287 293 283 279 278 287 293 299 302 305 305 306 303 305 306 303 302 303 303 300 298 300 295 286 292 292 291 290 289 284 281 276 280 287 292 290 287 285 284 281 278 280 283 280 266 249 242 229 225 236 238 245 256 258 252 253 271 279 274 241 214 205 201 206
180 178 183 183 171 169 164 179 189 210 257 274 251 258 247 254 263 271 283 274 274 276 272 273 272 279 278 285 294 296 298 300 300 300 302 300 299 299 301 301 299 299 296 294 292 291 289 290 290 288 287 290 290 291 288 285 281 280 278 277 274 275 273 275 274 268 249 240 232 226 236 237 236 243 250 249 255 257 255 271 280 247 221 216 184
180 181 176 181 179 179 186 195 191 224 224 225 224 220 230 245 250 260 275 270 273 272 274 276 288 289 293 293 294 295 293 292 293 294 295 296 299 300 303 302 304 302 303 298 293 295 295 298 295 289 287 281 282 279 275 276 276 276 272 271 273 271 275 275 276 269 254 242 231 227 230 232 235 236 242 250 252 254 254 272 274 274 228 186 212
181 177 178 178 183 182 184 184 192 208 220 220 221 217 234 244 256 260 270 280 276 275 276 290 286 288 287 287 290 293 290 291 290 292 293 290 291 293 297 298 301 297 299 296 300 300 296 293 288 284 279 280 279 279 280 278 275 270 269 264 268 276 279 280 281 275 256 248 236 230 226 234 235 229 234 242 250 248 251 250 270 277 264 208 145
178 178 180 180 187 181 181 184 192 205 213 216 211 224 234 245 258 266 281 286 280 280 294 297 299 299 295 284 284 288 289 291 288 288 292 295 293 290 289 290 291 294 291 294 296 295 292 290 288 284 285 281 278 278 274 274 272 272 270 280 284 279 279 281 281 277 261 248 241 232 236 227 235 224 224 234 242 241 243 247 252 275 281 301 189
182 181 181 186 182 182 176 183 200 204 208 207 214 228 230 244 252 259 270 277 277 291 296 299 299 294 289 290 289 287 288 291 291 286 282 284 289 291 292 291 288 289 290 290 289 289 289 288 285 281 282 281 277 276 278 279 280 277 277 273 273 269 271 278 279 277 267 251 245 241 240 235 227 223 223 231 234 241 241 241 237 253 267 248 250
183 183 181 183 183 183 182 188 198 201 198 204 219 217 224 246 256 272 274 272 283 298 303 300 292 292 292 291 292 293 290 288 286 287 286 283 283 286 288 290 287 287 289 290 292 289 286 284 284 284 281 282 278 275 273 274 274 275 272 273 268 266 268 273 277 276 272 256 246 241 242 245 233 223 224 227 234 240 241 242 232 242 257 262 206
178 172 178 180 178 182 191 197 193 191 193 206 230 232 225 232 248 265 272 294 307 318 314 305 303 299 297 296 293 290 293 289 285 286 287 289 288 287 286 287 286 288 287 291 290 289 287 286 280 281 283 280 274 271 270 269 274 270 270 267 265 267 268 270 269 272 271 260 247 243 243 251 246 237 228 227 230 236 242 240 241 241 243 257 239
181 185 185 183 180 184 188 195 199 196 193 202 226 245 252 258 253 250 275 295 304 308 300 296 292 296 297 296 294 294 290 288 286 284 287 287 290 292 288 285 287 286 288 287 288 286 285 283 279 281 282 278 275 270 269 271 267 268 265 262 258 258 262 265 267 270 273 263 246 241 241 247 248 247 240 234 233 236 239 242 243 243 247 255 254
182 182 184 181 182 187 188 187 188 195 205 212 223 252 261 255 255 281 308 321 316 309 304 303 301 297 297 295 291 287 286 284 286 288 287 285 285 289 289 290 287 290 287 288 283 283 282 281 281 281 281 278 275 271 270 271 269 266 266 266 267 263 263 265 270 268 270 264 249 240 237 242 244 246 247 241 239 237 239 242 241 244 250 253 257
185 180 179 181 185 191 193 186 186 181 178 203 229 248 254 251 296 340 329 320 312 305 309 308 309 302 298 295 293 294 293 292 289 284 284 285 285 288 288 287 289 284 290 287 284 285 289 291 287 287 283 281 279 275 269 267 266 265 271 275 277 272 268 268 266 269 267 262 250 240 237 238 239 244 246 245 241 240 241 241 238 242 248 251 253
177 179 175 180 183 186 183 168 160 162 223 240 255 244 253 305 353 332 312 300 303 311 315 311 307 300 295 295 295 295 294 295 295 293 291 289 288 289 288 292 288 290 291 294 294 289 285 287 286 287 285 280 272 270 267 265 265 268 270 268 266 267 267 267 268 270 274 269 249 238 236 237 234 243 243 242 240 242 239 241 239 236 243 250 246
178 174 178 176 179 181 180 175 182 189 211 229 242 248 307 349 336 305 299 298 305 307 311 305 299 299 299 300 301 301 301 299 297 294 291 292 293 292 292 291 293 297 298 294 293 294 296 293 288 287 288 285 285 281 275 265 258 260 261 264 261 260 258 262 266 264 267 271 259 240 237 235 236 244 246 243 242 241 238 240 241 236 243 248 245
179 174 175 176 173 169 158 165 186 206 218 236 244 331 344 318 295 289 293 305 312 311 305 301 299 300 303 304 304 304 304 303 303 302 300 299 297 297 297 294 300 299 297 298 296 294 294 293 289 286 286 284 284 283 281 277 268 258 257 260 260 256 254 258 261 265 266 269 264 247 235 232 236 246 248 248 246 243 239 242 241 241 242 250 241
178 179 178 169 163 165 183 183 192 203 219 230 280 334 290 282 284 289 296 308 307 303 301 300 304 308 309 310 307 309 307 305 302 300 300 300 301 301 301 304 303 302 299 299 299 296 292 291 289 286 287 284 284 283 281 280 279 273 270 274 276 277 272 266 263 264 265 264 268 254 238 233 236 244 247 248 246 246 245 243 242 241 242 247 237
180 174 174 178 178 180 177 185 188 200 203 215 260 252 270 272 283 296 304 310 300 298 301 310 313 313 308 304 305 308 309 309 308 306 308 307 306 307 307 305 305 299 300 296 294 295 293 290 291 287 284 283 282 282 279 276 273 272 271 271 269 267 267 267 265 261 258 259 262 262 247 236 236 240 246 247 246 248 249 248 246 243 243 244 230
182 178 171 166 170 185 190 180 186 192 186 188 216 255 267 279 295 304 300 298 300 306 315 314 311 306 304 304 305 304 304 302 306 307 307 309 308 307 307 305 304 300 299 299 296 293 294 291 286 287 282 280 280 278 277 275 272 270 269 268 268 261 260 259 257 257 256 257 254 256 251 240 237 236 239 248 256 256 249 252 247 247 244 243 217
171 173 177 181 183 182 178 184 184 187 172 199 224 247 263 286 304 304 300 302 313 320 316 313 311 307 303 303 305 305 305 306 306 309 312 309 307 309 304 305 301 300 299 297 297 295 293 292 289 285 283 280 276 276 273 271 268 266 266 267 268 267 262 256 254 254 255 256 254 251 247 238 234 239 246 250 255 262 266 258 251 248 248 237 208
182 186 180 178 181 181 179 178 179 158 188 224 244 252 273 294 286 290 298 311 328 325 320 314 309 305 305 304 305 308 307 306 310 313 310 310 311 306 304 301 299 298 296 295 294 292 291 291 289 283 280 276 274 271 271 267 267 264 262 261 262 262 261 263 262 260 257 255 253 247 242 234 233 238 240 248 254 261 271 278 276 263 248 231 202
189 185 181 178 178 170 172 166 159 170 195 228 252 264 291 290 282 289 304 316 344 325 319 316 312 308 306 308 307 306 307 311 312 311 311 311 306 306 303 301 298 295 291 289 289 295 292 288 288 285 279 275 271 269 267 266 264 264 260 258 252 253 253 252 254 256 255 253 254 245 233 230 233 236 241 247 252 256 257 256 260 267 261 232 199
187 178 179 178 172 166 156 154 171 176 203 219 235 269 281 278 289 308 325 337 336 321 314 317 311 310 313 312 309 309 314 314 311 308 307 307 306 305 302 298 294 288 285 286 286 294 299 288 281 281 280 274 269 264 268 267 267 265 266 267 264 261 261 259 253 252 254 253 254 257 256 242 237 237 241 243 250 256 260 261 256 253 254 250 202
186 180 173 174 171 166 163 171 169 183 191 200 219 252 253 272 302 329 339 333 325 320 319 315 315 313 313 313 312 313 314 312 310 305 306 308 305 304 302 300 296 292 291 284 291 291 288 289 279 276 275 273 271 267 270 273 268 267 265 264 262 264 264 263 264 259 254 252 254 255 246 237 229 227 231 237 245 253 263 269 267 260 257 250 223
179 176 175 173 173 166 161 155 159 174 181 182 188 242 257 310 337 341 336 327 326 323 317 313 312 313 312 317 317 316 314 310 309 308 307 308 307 305 305 303 299 296 296 299 294 294 287 286 281 278 276 272 268 272 271 273 274 268 267 264 262 258 257 256 255 257 253 244 242 247 249 237 232 226 228 236 237 252 264 273 271 264 257 246 229
174 168 169 164 145 141 140 151 160 163 153 139 192 186 297 347 346 340 333 328 323 314 317 314 315 317 321 320 318 315 310 310 310 311 309 308 309 306 305 303 298 299 296 295 295 286 284 278 278 279 275 273 273 270 274 273 274 273 267 265 261 258 257 256 254 252 251 244 236 245 252 249 241 233 229 235 239 250 267 281 283 268 252 239 223
168 163 160 155 145 139 139 148 156 151 137 160 177 355 337 358 4 344 334 324 320 315 317 318 320 322 321 320 316 315 312 313 314 312 312 309 309 309 307 309 313 315 314 312 311 309 307 299 289 280 275 275 271 276 278 279 278 275 268 264 261 258 255 252 252 251 251 245 240 244 251 257 253 246 236 235 243 250 266 277 282 274 247 230 216
172 162 155 144 144 152 157 154 139 133 139 139 143 14 18 15 353 338 329 321 319 319 318 325 323 322 322 320 317 314 315 316 315 315 314 311 312 313 315 318 316 316 314 311 309 305 303 302 298 292 283 277 277 281 284 285 283 278 271 263 261 259 260 260 253 248 247 245 242 239 242 246 251 249 246 244 246 248 261 272 278 276 248 222 207
144 141 135 113 120 124 136 136 135 132 134 122 78 48 39 17 5 340 334 326 326 327 328 327 321 318 317 317 316 316 316 316 315 315 315 316 316 321 323 323 317 317 316 315 310 306 304 301 297 294 288 281 280 284 290 289 285 280 271 262 262 258 256 254 255 253 247 241 230 224 232 245 246 247 243 244 246 246 256 263 271 273 246 213 201
108 98 102 109 115 121 133 135 131 122 121 120 103 63 48 30 5 348 343 336 336 332 331 325 316 316 316 315 314 315 314 314 315 315 316 315 315 317 319 320 318 317 317 315 309 304 303 301 297 294 287 280 281 285 291 292 288 280 269 259 255 254 254 258 258 253 254 254 253 254 251 246 244 241 240 241 243 240 249 257 267 272 243 211 201
125 134 132 135 138 134 132 124 125 137 127 124 90 73 68 39 8 354 343 338 340 333 331 325 317 316 312 311 312 312 312 312 314 314 316 316 319 320 316 317 315 312 309 309 308 306 304 302 296 294 299 297 287 287 292 293 289 283 272 253 252 249 252 252 255 257 250 246 242 244 246 245 242 241 241 240 240 240 242 253 261 269 242 211 198
110 102 108 125 131 125 122 128 144 143 132 111 82 82 75 54 9 347 347 343 337 332 320 318 313 311 310 310 311 310 310 312 312 313 314 316 316 316 319 318 314 312 310 308 307 304 304 304 300 294 287 296 299 290 293 297 289 280 275 260 237 246 243 248 249 258 261 260 252 247 245 244 243 241 241 240 242 243 240 250 253 258 244 215 189
128 132 133 125 129 129 134 144 148 137 120 99 95 89 68 54 3 4 353 339 332 324 323 318 314 310 310 309 310 309 310 311 310 311 314 314 316 317 318 318 315 312 309 308 307 307 306 302 295 292 291 301 302 305 311 315 313 300 277 265 242 241 243 241 245 244 247 249 242 235 235 242 244 243 240 242 244 247 245 245 245 249 248 224 185
106 129 128 119 119 123 131 132 128 124 108 104 100 93 73 54 19 5 343 331 329 327 321 316 312 311 308 308 308 309 308 309 313 317 319 317 316 316 315 316 311 311 311 309 309 311 312 305 297 304 299 301 308 320 314 312 312 314 314 271 247 241 237 242 242 241 243 247 251 247 240 240 247 247 246 244 246 247 249 247 246 252 261 241 189
141 132 140 135 135 146 151 133 118 108 106 105 104 88 76 56 26 354 337 331 332 326 318 314 310 307 309 309 310 313 316 318 320 321 319 317 318 321 321 317 314 315 315 312 313 310 301 299 312 303 304 315 321 317 316 314 315 319 323 329 287 246 242 239 238 243 242 244 241 246 243 245 245 242 240 240 240 245 250 249 257 264 261 235 187
100 108 139 143 142 146 132 121 116 116 115 103 104 93 78 55 25 353 337 334 327 324 317 312 309 307 308 312 314 314 314 319 322 322 321 319 322 323 322 321 321 320 319 307 299 300 303 319 314 311 321 327 321 319 315 318 321 319 325 322 329 306 250 236 236 240 242 237 240 244 250 244 240 239 239 239 242 246 253 262 269 267 250 211 182
144 148 145 159 156 143 130 121 119 114 117 105 98 96 78 55 0 360 336 337 328 323 320 309 309 309 311 311 312 314 319 323 327 326 327 327 324 327 324 325 325 328 321 306 308 298 319 319 312 321 331 329 327 323 319 322 322 322 319 321 322 321 317 274 244 234 234 242 244 248 248 249 249 246 243 242 244 249 253 263 264 264 236 186 184
119 126 151 154 135 123 124 120 117 127 119 117 88 87 83 35 1 348 340 332 322 318 314 308 308 312 313 314 317 319 321 324 326 328 325 322 322 325 324 322 325 327 325 310 296 327 327 319 312 331 332 328 328 325 325 322 322 316 321 321 319 318 309 306 291 243 232 231 237 243 245 247 246 242 240 239 244 242 251 260 268 257 202 186 177
153 159 149 146 137 125 127 132 131 136 124 100 97 81 79 50 357 338 340 327 318 308 303 309 315 315 316 319 324 327 328 327 327 329 327 325 325 323 320 323 321 318 314 301 325 335 329 321 324 337 332 330 326 329 323 315 309 319 319 315 318 309 307 306 303 250 227 230 232 234 236 240 239 236 235 236 235 242 257 263 268 229 192 183 177
147 150 159 141 133 132 136 137 138 142 125 112 105 94 85 64 358 342 333 333 318 307 311 313 313 314 319 320 324 330 331 327 328 330 332 332 328 323 324 326 322 320 312 320 316 327 331 323 327 336 332 330 329 328 326 327 332 329 322 317 306 301 296 293 296 276 221 215 218 225 230 228 233 233 234 228 223 232 245 254 248 211 191 183 178
155 162 162 147 143 137 142 138 136 136 129 127 103 98 77 46 5 347 347 339 318 317 314 311 313 323 324 323 327 330 328 327 323 325 326 328 326 324 326 318 321 320 334 338 336 334 330 333 324 342 334 334 332 331 331 336 335 333 329 321 312 303 290 283 275 279 245 212 208 218 214 220 216 222 224 225 226 229 241 237 229 207 188 181 177
138 139 135 124 134 138 143 139 136 136 137 128 114 93 69 36 11 345 348 329 317 319 321 322 325 325 317 323 332 329 328 326 324 323 326 323 326 336 329 326 323 337 343 348 353 347 347 342 340 347 343 343 336 333 336 340 340 340 338 332 324 318 299 267 262 262 261 212 207 207 216 220 221 222 224 223 221 218 229 225 216 197 187 180 176
155 136 135 135 138 136 132 134 140 142 136 136 116 99 107 12 21 357 326 307 312 318 319 317 329 327 321 332 327 329 328 324 324 324 327 327 326 329 336 337 336 341 344 347 353 354 353 354 356 352 349 350 344 344 346 345 346 346 346 348 348 349 354 297 242 252 243 220 209 207 213 213 219 220 217 218 210 214 218 214 203 192 189 181 177